Temp
9 9 9 9 9 9 9 9 9 9 9 8 8 7 7 7 7 8 8 8 8 8 8 8 9 10 11 16 13 10 10 10 10 11 11 13 15 16 15 14 14 13 13 12 12 11 11
8 9 9 9 9 9 9 9 9 9 9 8 8 7 7 7 7 7 7 8 8 8 8 8 9 11 13 16 10 10 10 10 10 11 11 13 13 15 14 13 14 12 12 12 12 12 11
9 9 9 8 8 9 9 9 9 9 8 8 7 7 8 8 8 8 7 7 8 8 8 8 10 11 15 13 11 10 10 9 9 10 11 10 11 14 13 12 11 11 12 13 12 12 11
8 8 8 8 8 8 8 9 8 9 8 8 7 7 8 8 8 8 7 7 8 8 8 8 10 12 14 9 11 10 10 10 9 9 9 10 11 11 12 11 12 13 12 14 13 11 12
8 8 8 8 8 8 8 9 8 8 8 8 7 7 8 8 8 8 7 7 8 8 8 10 11 13 13 9 10 10 10 11 9 9 9 10 10 11 11 13 15 14 16 15 15 12 11
8 8 8 8 8 7 8 8 8 8 8 7 7 7 8 7 8 8 8 8 8 8 9 11 11 13 9 11 10 10 9 10 10 10 11 11 12 12 12 13 17 17 15 16 15 14 12
8 8 8 7 8 7 7 7 8 8 8 8 8 7 8 8 8 8 8 9 11 11 11 14 14 13 11 10 10 10 9 10 11 11 12 11 11 13 15 13 13 13 13 14 15 14 9
8 8 7 7 7 7 7 7 7 8 8 8 8 7 7 8 8 8 10 13 11 11 13 11 11 11 11 11 10 10 9 11 11 12 11 11 12 13 12 11 11 11 11 13 14 11 9
7 7 7 7 7 7 7 6 6 7 7 7 7 6 7 7 8 8 10 11 10 10 13 11 11 12 11 10 12 11 10 11 11 12 12 12 13 10 10 9 8 11 10 11 10 10 12
7 7 7 7 7 7 7 7 6 6 7 6 7 7 7 8 8 10 10 8 9 10 14 12 10 11 11 12 11 10 10 11 11 11 12 13 9 9 9 10 9 8 10 9 9 9 12
7 6 7 7 7 7 7 6 6 6 6 6 6 7 8 8 9 10 8 7 8 10 16 12 10 9 11 12 9 9 8 10 11 12 9 12 9 9 9 10 9 9 7 7 7 8 8
7 6 6 6 7 7 6 6 6 5 5 5 6 7 7 7 8 8 8 7 9 14 15 11 10 9 9 10 10 9 9 9 9 10 10 11 8 9 11 8 9 7 5 6 5 7 7
6 6 6 6 6 6 6 6 6 5 5 5 6 7 7 8 11 8 7 10 14 15 13 11 10 10 11 11 10 10 9 8 10 10 12 10 9 8 8 8 6 5 7 12 11 8 13
7 6 6 6 6 6 6 6 6 6 5 5 6 7 7 7 7 7 9 13 14 18 17 12 11 11 11 12 11 10 11 10 9 10 11 14 12 7 7 7 8 5 7 12 12 15 15
7 7 6 6 6 6 6 6 5 5 5 5 6 7 7 6 6 7 12 13 16 18 14 12 11 12 12 11 11 10 11 12 11 9 10 12 11 5 5 4 5 4 5 5 8 5 8
7 7 7 6 6 6 6 6 5 5 5 5 7 8 8 5 6 8 12 12 16 14 12 13 16 15 15 12 10 10 12 10 9 8 5 11 11 7 3 4 2 4 5 6 7 8 11
7 7 7 7 7 6 6 6 6 5 5 4 8 10 5 4 6 10 10 12 13 13 13 13 15 15 15 13 12 11 13 12 11 7 7 6 8 6 4 4 5 2 5 4 5 9 10
7 7 7 7 7 7 7 6 6 5 5 4 9 10 4 5 9 11 10 10 10 11 11 11 11 14 14 14 12 13 13 14 9 5 6 7 8 9 7 1 1 5 7 6 9 8 6
8 8 8 7 7 7 7 7 6 6 5 6 8 9 3 5 9 11 11 9 10 10 10 10 11 11 13 12 9 12 12 8 7 6 7 6 7 9 8 3 1 2 3 5 6 5 7
8 8 8 7 7 7 7 7 6 6 5 6 6 6 5 5 9 8 10 10 10 10 10 10 10 9 7 8 10 8 10 5 6 6 7 6 6 9 13 11 5 2 3 4 5 6 7
8 8 8 7 7 7 7 7 7 6 6 5 4 6 8 5 6 7 8 10 10 10 8 8 8 8 7 7 8 8 8 4 3 4 5 4 5 6 7 8 7 6 5 3 3 4 6
7 8 8 8 8 8 8 7 7 6 6 4 4 5 5 7 9 7 7 7 8 9 7 8 7 8 7 7 8 8 6 5 7 3 3 3 5 6 5 6 6 6 7 6 2 4 4
6 6 7 7 7 7 8 8 8 7 6 4 5 4 4 6 6 6 7 8 9 9 8 10 10 9 6 7 9 10 9 7 6 4 3 3 3 4 6 5 3 4 4 5 6 5 4
4 5 5 5 6 6 6 7 7 8 7 6 5 4 3 6 6 8 10 10 9 9 9 11 10 8 9 9 5 5 6 6 5 4 4 3 3 4 5 2 5 10 4 6 5 6 5
4 4 4 4 5 5 5 6 6 6 6 6 5 5 3 6 6 7 8 9 10 10 9 9 11 10 7 4 6 7 6 5 5 5 4 4 3 4 5 7 8 8 7 3 4 6 5
3 3 4 4 4 4 4 4 4 5 5 6 6 5 4 4 7 9 8 8 8 8 9 10 11 11 4 5 6 8 9 10 10 6 4 4 4 4 6 5 7 10 2 0 4 6 6
3 3 3 3 3 3 4 4 4 4 4 5 6 6 5 4 7 9 8 7 6 7 8 10 9 6 5 6 7 8 8 11 10 9 3 4 4 5 5 6 7 9 -0 -1 5 9 6
3 3 3 3 3 3 3 3 3 4 4 4 5 6 5 4 7 9 9 8 6 6 7 5 5 4 4 6 7 9 9 11 10 11 7 6 4 5 5 5 6 1 -1 5 8 2 3
2 3 3 3 3 3 3 3 3 3 3 4 4 4 5 4 5 7 8 8 8 9 6 4 6 6 6 6 7 7 8 8 10 9 10 8 9 9 7 8 5 0 6 3 -1 2 -0
Height
830 830 828 828 828 827 826 823 822 821 821 821 821 821 821 822 823 825 826 828 830 832 833 835 835 836 836 832 840 842 842 841 840 839 838 836 832 830 833 840 842 844 848 852 853 856 856
831 830 829 829 829 828 826 824 823 822 822 821 821 821 820 821 822 824 826 829 831 832 834 835 836 837 837 831 843 843 843 843 843 842 841 838 839 836 838 842 841 848 851 849 852 853 854
831 831 830 830 829 828 826 825 824 824 823 822 821 820 820 821 822 823 826 829 831 833 834 836 837 838 835 840 844 844 845 845 845 844 843 844 844 840 841 845 850 851 849 846 848 851 852
832 832 831 831 829 828 827 826 825 824 824 823 822 821 821 821 822 823 826 829 832 834 836 837 838 838 836 843 844 845 846 846 846 846 846 847 847 846 844 850 847 844 845 835 842 849 848
833 832 831 831 830 828 827 826 826 825 824 824 823 822 822 822 823 824 826 829 832 835 837 838 840 838 837 843 845 846 846 847 848 849 849 849 849 847 848 840 832 835 826 828 831 845 848
834 833 832 831 830 829 827 827 826 825 824 824 823 822 823 824 825 827 828 831 834 836 838 840 839 840 846 841 844 846 847 848 849 850 849 848 846 843 841 839 822 821 827 824 829 836 842
833 833 832 831 830 829 828 827 826 825 824 824 823 823 824 825 827 829 831 835 839 840 837 828 830 833 839 844 846 847 848 850 850 848 841 849 846 833 829 835 840 842 838 833 825 831 849
832 832 831 830 829 828 828 827 826 825 824 824 823 824 824 826 828 830 833 830 830 833 829 834 835 837 840 841 844 848 850 849 848 839 848 848 838 837 838 847 849 848 845 836 828 843 849
831 831 830 829 829 828 828 827 826 826 825 824 823 823 824 828 829 832 831 831 831 831 826 832 833 834 839 842 837 842 848 846 843 839 841 842 838 846 847 852 859 848 848 845 848 845 829
830 829 829 829 828 828 827 826 825 825 825 824 822 822 824 827 833 830 831 830 831 831 820 826 833 834 838 838 839 843 845 845 844 840 839 836 850 849 850 849 855 858 850 856 857 853 826
829 828 828 827 827 826 826 825 825 824 823 823 822 822 824 825 827 829 830 829 831 834 812 825 833 836 836 834 841 846 849 847 840 837 850 832 848 850 850 844 851 853 863 865 863 856 857
828 826 826 826 826 825 825 824 823 822 822 822 821 821 824 827 826 826 827 830 834 821 805 822 829 832 835 834 838 845 845 848 848 844 842 838 852 847 839 854 855 864 872 870 872 859 855
826 825 825 824 824 823 823 822 822 820 820 820 820 820 824 824 824 825 828 831 819 809 807 815 821 826 823 826 831 836 840 843 832 837 823 837 841 851 852 854 863 872 863 821 820 841 795
822 822 823 822 822 822 822 821 821 819 818 818 818 819 822 823 824 826 830 823 814 780 786 809 813 820 818 816 820 829 826 828 830 829 823 808 813 848 851 849 844 865 856 815 807 787 781
818 818 818 818 819 820 820 821 820 819 818 818 818 820 822 822 824 827 824 814 786 774 789 802 815 809 808 814 815 822 818 808 810 821 820 811 814 853 858 861 859 868 863 862 842 861 834
813 813 813 814 814 815 816 818 818 818 818 818 818 818 818 820 823 827 819 803 784 787 793 795 782 784 784 801 816 817 801 807 812 819 830 809 812 841 863 862 869 863 860 852 851 833 793
807 807 807 808 809 810 811 813 815 816 817 817 818 812 816 819 823 822 811 796 788 787 791 790 778 777 779 788 797 801 788 797 800 819 824 828 823 842 858 853 840 868 854 860 854 824 805
801 801 801 801 802 803 805 807 809 811 814 815 813 805 818 820 816 804 798 796 793 789 794 792 792 780 781 783 791 786 783 779 801 819 821 824 817 807 824 851 853 837 828 837 816 811 826
793 793 793 794 795 796 798 801 803 805 807 809 807 807 819 820 800 787 788 794 791 789 790 789 787 783 780 785 798 779 781 802 806 812 810 822 816 804 811 846 853 846 835 826 825 832 810
784 784 785 786 787 788 790 792 795 799 801 805 806 806 815 815 798 796 784 781 783 783 785 786 785 791 799 796 787 792 785 808 809 810 811 815 814 788 757 766 808 836 823 822 824 808 789
772 774 775 775 777 778 780 782 785 789 794 800 799 791 788 800 794 792 788 778 777 778 787 788 788 786 793 796 793 793 794 812 816 813 816 821 808 801 789 787 793 797 801 815 817 793 793
763 762 764 764 765 767 769 771 773 777 784 790 790 787 788 782 776 783 787 782 774 772 783 780 784 776 786 787 778 779 792 798 787 810 816 816 798 796 791 790 792 788 778 784 800 791 786
758 758 759 759 759 759 759 759 761 764 769 772 777 778 779 774 775 778 769 764 762 766 770 761 764 769 781 770 769 766 771 779 782 792 803 804 804 799 776 788 803 791 769 759 757 764 774
755 756 755 754 755 755 754 756 757 756 750 757 761 768 774 760 763 752 748 751 755 753 756 748 756 765 761 763 771 774 773 774 777 778 782 789 798 790 777 802 780 715 742 738 743 741 746
750 750 749 750 752 750 751 752 752 752 752 750 749 752 758 749 750 746 749 747 743 743 747 746 745 750 759 770 769 764 765 772 761 762 766 769 783 775 769 748 731 721 723 742 742 721 722
744 744 744 744 745 745 745 747 747 747 748 747 743 745 746 744 733 736 739 739 738 738 737 731 737 744 757 763 758 744 732 721 725 744 756 762 763 766 754 745 724 690 730 737 732 718 704
739 739 739 739 738 738 739 740 740 741 742 742 738 739 738 739 721 727 728 730 734 732 726 723 728 743 747 744 741 729 720 702 710 718 752 755 754 744 734 728 712 691 730 739 723 680 688
733 733 732 732 733 733 733 733 734 734 734 736 729 733 733 727 715 717 718 722 725 725 723 729 734 734 738 728 722 708 703 691 695 684 708 718 734 730 732 722 706 712 735 708 675 691 694
727 727 727 727 726 727 727 727 727 728 728 729 724 727 727 724 712 710 708 710 712 714 722 721 716 721 718 718 712 709 697 695 683 679 677 691 680 674 690 672 679 693 676 685 693 689 699
Wind_Speed
9 8 7 8 7 6 7 9 8 7 5 3 2 2 2 5 6 7 7 7 7 7 8 8 9 10 4 2 4 3 4 9 7 8 11 5 7 2 6 5 5 6 2 2 2 4 8
4 5 7 6 6 6 6 8 9 6 4 4 2 1 2 6 6 8 8 7 7 7 7 8 9 8 6 3 3 3 4 6 9 8 10 11 6 6 7 4 2 2 2 5 3 5 6
4 2 1 4 5 6 7 7 8 7 6 5 4 1 4 3 5 8 9 8 7 7 7 8 9 3 2 5 4 2 3 6 7 6 7 8 5 2 3 6 3 1 3 4 7 5 4
2 2 2 1 1 4 5 6 6 6 6 5 5 3 4 4 5 9 11 11 9 7 8 8 8 4 2 4 4 4 4 6 8 7 8 6 7 6 2 4 4 3 2 2 8 4 1
1 1 0 1 1 1 2 4 5 4 6 6 4 3 4 6 8 10 12 13 10 10 8 8 3 5 2 5 4 3 1 2 5 5 5 4 3 2 3 1 2 3 4 3 3 7 3
1 0 1 1 1 2 1 1 3 4 5 5 4 2 6 9 12 15 17 16 14 11 6 2 1 4 4 4 6 6 4 5 2 5 2 1 0 1 1 1 2 4 5 3 7 5 9
1 0 1 0 1 1 2 1 1 3 4 5 4 1 8 12 15 20 21 14 6 4 7 2 0 4 7 8 8 5 4 4 4 3 2 2 2 3 2 3 2 4 7 11 13 3 7
2 1 0 1 1 1 1 1 1 1 2 3 3 3 10 14 17 20 9 4 4 3 3 5 2 4 7 6 4 8 7 5 4 3 2 3 6 3 5 5 1 3 8 11 9 2 6
3 2 2 1 0 1 2 1 1 1 2 3 4 5 12 14 16 13 8 2 2 1 4 4 6 4 3 8 2 11 10 3 6 6 6 7 3 6 4 4 2 6 8 9 8 13 16
0 3 2 1 1 0 2 1 1 1 1 3 5 8 13 15 8 7 6 7 4 1 4 7 5 4 6 4 5 4 8 3 4 3 3 7 5 5 4 4 6 4 4 3 7 8 6
3 2 2 5 4 1 2 2 1 0 0 2 4 8 14 17 3 5 3 5 6 2 4 8 5 4 7 6 8 5 2 4 5 3 3 2 5 7 6 5 9 1 2 3 6 9 10
6 5 5 4 5 6 3 2 2 1 1 1 2 9 15 9 3 4 7 9 4 4 6 6 6 8 8 8 5 5 5 2 2 3 9 12 1 4 3 6 5 6 1 2 2 2 4
9 8 8 7 7 6 6 5 2 1 2 1 3 10 13 6 0 9 12 6 4 5 4 6 5 8 12 9 10 9 8 8 6 4 8 6 10 3 7 5 5 3 2 3 3 3 4
11 11 11 10 10 9 8 7 5 4 2 0 2 13 9 5 6 13 8 4 7 4 5 4 4 9 8 12 6 9 6 7 16 8 3 6 6 11 10 4 4 8 2 3 6 7 8
14 14 13 13 13 12 11 9 7 6 3 3 8 7 5 5 10 10 5 6 6 4 6 11 8 8 9 8 3 9 10 6 5 18 11 7 5 6 2 2 1 7 6 2 4 1 6
17 17 16 16 15 15 14 12 10 7 5 5 6 7 6 9 10 7 5 7 7 1 6 7 8 13 9 11 9 10 10 6 6 14 2 3 3 7 5 4 2 3 5 3 3 5 8
21 20 20 19 18 18 17 15 14 10 7 6 6 4 5 12 9 5 6 8 6 5 8 8 7 7 9 7 12 9 6 7 10 11 9 4 3 8 7 11 11 6 5 5 3 4 5
25 24 24 23 22 21 21 20 18 15 12 7 3 4 6 13 7 6 10 6 2 6 7 6 4 7 9 9 8 11 10 9 13 13 11 9 4 8 11 3 1 10 8 12 6 8 5
29 28 27 26 25 25 24 23 22 21 21 8 3 3 6 7 7 12 9 5 7 7 7 7 8 9 6 7 4 13 6 5 13 12 11 10 6 3 5 2 2 7 10 14 7 1 15
32 31 31 30 29 28 28 27 26 26 26 11 4 5 3 6 9 7 11 12 12 8 6 6 3 4 3 6 11 3 6 3 9 9 4 9 6 9 15 4 6 7 13 20 15 8 11
35 34 33 34 33 33 32 32 32 32 32 19 3 5 6 7 10 17 9 5 11 8 7 8 5 13 7 6 5 9 10 3 6 9 7 9 9 15 21 19 13 12 12 19 26 27 15
8 16 33 35 32 34 34 34 35 35 34 18 4 3 3 3 9 15 18 12 20 12 9 8 11 11 13 12 13 6 7 9 8 13 11 7 5 6 18 16 18 22 21 22 27 26 26
22 19 17 18 15 15 23 32 35 40 41 8 14 7 3 7 7 8 9 17 13 10 13 22 16 13 14 25 18 18 14 8 7 14 16 10 7 5 10 5 1 14 24 27 27 20 25
15 15 15 20 22 24 23 20 21 26 51 29 14 7 4 6 11 16 17 18 21 20 18 14 17 13 6 2 3 3 9 11 12 15 15 10 12 6 5 6 8 14 3 11 21 24 27
16 16 16 17 17 15 18 23 23 21 14 37 17 9 5 6 10 17 18 20 19 17 22 21 20 13 9 5 3 5 5 4 12 23 20 17 11 6 6 13 13 19 8 8 9 17 22
17 17 18 18 19 21 20 21 18 19 19 16 25 21 3 3 13 13 12 21 18 16 17 23 18 13 7 4 4 7 9 10 6 5 6 17 15 9 10 8 12 20 5 4 6 11 12
18 19 19 18 19 20 22 23 23 22 21 19 18 22 9 4 14 16 7 8 5 10 7 7 7 6 12 8 10 11 12 7 11 10 7 6 10 20 21 16 8 14 10 7 6 14 4
21 20 19 19 20 21 19 19 20 22 22 22 23 21 21 3 15 15 15 15 4 6 8 3 3 2 5 9 7 9 9 14 14 23 11 15 12 10 12 10 14 9 9 11 10 3 2
20 21 21 21 23 23 22 23 24 23 22 23 27 24 23 8 8 18 19 29 33 21 8 7 3 5 7 5 4 4 5 4 16 17 19 13 15 12 13 8 3 16 7 16 2 4 5
Wind_Direction
67 66 64 68 70 62 65 60 66 86 97 86 94 129 164 169 173 180 179 184 187 190 192 192 192 184 285 136 89 89 23 6 16 21 27 17 47 63 121 112 117 100 169 227 255 271 267
63 73 58 59 63 64 64 69 62 70 66 70 79 146 185 178 181 182 183 183 184 188 193 193 187 182 260 221 117 103 29 31 26 34 38 49 59 63 90 89 70 75 258 275 277 257 264
59 79 86 58 48 66 68 69 66 57 54 59 38 62 137 167 182 176 178 176 177 182 184 186 174 221 266 94 125 90 80 47 32 36 65 48 28 315 123 128 124 109 285 201 228 227 273
72 78 98 47 356 61 61 66 62 54 36 38 43 85 115 133 157 170 166 168 167 171 166 181 181 255 69 144 144 108 111 62 60 65 81 62 57 76 56 124 174 216 215 282 147 200 187
106 101 52 132 45 136 61 59 52 51 31 23 37 90 116 118 129 146 155 153 154 145 157 158 215 271 139 151 176 146 112 108 83 78 77 63 30 67 167 270 219 201 295 281 254 185 280
290 64 277 42 42 68 94 146 57 39 23 19 19 131 139 135 133 130 130 130 134 133 140 166 238 238 160 196 153 139 106 126 98 128 141 284 206 150 173 198 310 310 302 282 278 177 244
96 232 300 290 326 34 39 78 193 33 22 15 7 218 159 151 145 140 136 125 152 169 215 243 354 63 134 121 133 166 143 150 147 237 291 45 269 241 344 223 344 319 293 287 291 352 297
65 6 317 253 288 316 329 21 114 355 357 2 352 213 171 159 155 155 169 256 12 31 198 193 125 100 135 163 142 168 165 212 213 235 121 231 238 72 104 120 202 270 292 289 297 29 287
94 34 13 130 155 51 3 342 356 283 340 358 357 184 171 168 169 182 219 206 142 12 258 153 200 185 169 185 239 178 188 204 229 237 232 254 38 132 134 159 193 251 259 295 291 316 271
129 188 154 355 101 234 281 281 232 317 17 18 11 163 165 163 163 190 224 199 186 55 266 148 190 168 152 191 207 138 195 256 207 273 255 261 103 194 203 220 199 277 18 270 285 321 307
232 240 251 211 212 238 235 248 249 211 176 62 34 164 169 155 126 192 146 163 165 205 284 127 146 128 157 197 129 155 185 181 240 184 161 97 178 191 215 225 169 359 22 304 299 286 316
256 244 241 258 238 212 235 238 236 216 243 358 11 177 179 199 204 174 149 138 156 218 251 159 138 168 159 193 161 134 176 202 2 248 227 262 41 245 259 110 186 111 307 260 270 274 246
265 260 254 252 250 238 228 239 248 208 240 297 303 175 164 188 123 167 147 162 226 238 127 165 182 176 197 180 190 194 178 185 194 184 203 183 213 138 158 154 154 157 254 273 226 208 279
260 259 257 253 252 249 246 242 231 258 234 44 114 164 189 184 172 156 167 208 231 285 185 102 140 172 194 165 207 195 202 237 221 221 268 242 223 182 185 209 205 188 249 259 279 290 305
261 258 255 251 251 249 245 243 233 243 230 166 149 165 176 191 162 168 210 218 229 228 115 154 151 197 199 200 223 192 219 240 197 187 195 196 183 106 128 134 252 150 205 43 294 199 278
261 260 257 254 247 244 241 237 237 227 229 191 180 183 172 169 162 184 222 246 246 163 139 171 219 190 199 183 190 196 194 171 209 196 96 159 209 191 132 153 126 236 127 131 199 260 263
258 254 253 252 249 244 237 233 229 222 216 202 201 219 150 159 154 200 226 233 261 199 189 204 245 231 223 183 205 194 233 166 185 177 190 154 221 134 152 205 180 166 209 210 292 249 254
258 258 256 254 250 246 240 232 225 211 203 184 227 228 149 164 189 202 225 210 275 203 206 240 276 250 221 209 213 224 224 222 145 148 172 197 214 221 216 119 6 239 226 184 215 194 233
262 259 257 255 249 246 241 235 226 214 201 168 207 140 170 197 223 220 216 251 236 201 205 198 220 223 218 214 217 223 221 59 155 172 164 170 198 221 200 189 193 221 210 220 254 297 238
259 257 254 251 249 245 239 234 227 219 208 195 166 175 159 215 259 269 230 239 233 209 236 207 209 141 167 217 235 284 207 152 189 205 170 162 202 228 254 316 116 204 210 204 199 227 245
262 259 256 254 250 248 242 236 227 220 211 190 206 221 185 188 229 222 208 251 235 223 216 200 217 215 175 206 221 232 220 175 196 214 190 174 242 227 256 274 270 253 227 200 210 224 222
296 268 258 256 255 250 249 242 237 222 210 192 185 186 192 286 220 208 214 215 233 222 175 217 226 200 192 219 209 214 195 202 213 187 187 199 250 244 269 247 246 256 251 231 219 229 239
283 280 282 284 294 291 263 249 244 234 198 184 197 199 159 192 193 190 201 219 230 217 238 241 227 231 201 228 232 240 233 209 203 172 190 186 210 189 258 95 173 269 242 235 233 225 220
279 284 286 274 276 278 278 284 278 256 206 199 194 143 177 221 207 213 225 215 227 220 229 236 224 226 240 60 80 310 252 248 211 208 182 189 191 199 248 138 231 254 147 213 225 233 216
276 276 275 277 275 274 271 261 262 267 275 212 199 181 174 232 217 230 240 239 242 235 237 242 242 216 145 111 207 235 200 252 232 229 212 200 183 211 227 223 270 300 224 178 180 247 223
280 277 277 275 272 270 268 269 268 268 263 255 223 210 165 190 236 244 234 228 239 241 249 245 242 231 131 183 202 222 230 225 206 223 215 211 214 211 216 231 233 245 129 133 140 254 179
279 280 278 278 280 273 269 266 264 265 266 263 255 236 219 233 261 251 234 245 194 217 246 240 204 191 179 204 224 228 236 234 224 224 169 194 204 219 232 244 243 261 155 152 239 263 153
277 276 272 276 278 279 274 272 272 269 261 254 264 251 237 250 267 238 238 241 229 219 222 136 121 193 187 215 222 226 234 236 227 234 210 192 183 214 235 247 250 133 126 199 232 99 212
278 278 273 271 272 271 270 268 265 268 264 256 258 257 256 246 270 283 254 245 249 244 223 185 233 203 200 210 231 260 243 241 248 247 228 234 215 225 199 218 150 188 222 221 92 157 186